This demonstration page uses our WeatherBlox Daily Observations layout. Learn more.

Left ArrowRight Arrow

Hourly Observations for April 18, 2019

Temp ( °F °C ) Dew Point ( °F °C ) Humidity (%) Winds ( mph kmh ) Pressure ( in mb ) Visibility ( mi km ) Precip ( " mm )
12:53 am 00:53 Clear 58 14.4 41 5 53 53 NW 12 19 29.74 1007 10 16 0.00 0.00
1:53 am 01:53 Clear 60 15.6 42 5.6 52 52 NW 15 24 29.75 1008 10 16 0.00 0.00
2:53 am 02:53 Cloudy 60 15.6 42 5.6 52 52 NW 13 20 29.76 1008 10 16 0.00 0.00
3:53 am 03:53 Mostly Cloudy 58 14.4 42 5.6 56 56 NW 10 17 29.75 1007 10 16 0.00 0.00
4:53 am 04:53 Clear 58 14.4 41 5 53 53 NNW 14 22 29.78 1009 10 16 0.00 0.00
5:53 am 05:53 Clear 56 13.3 42 5.6 60 60 NW 13 20 29.82 1010 10 16 0.00 0.00
6:53 am 06:53 Clear 56 13.3 43 6.1 62 62 NNW 13 20 29.85 1011 10 16 0.00 0.00
7:53 am 07:53 Sunny 57 13.9 43 6.1 60 60 N 13 20 29.91 1013 10 16 0.00 0.00
8:53 am 08:53 Partly Cloudy 61 16.1 44 6.7 54 54 NNE 18 30 29.96 1015 10 16 0.00 0.00
9:53 am 09:53 Mostly Sunny 64 17.8 39 3.9 40 40 NNE 17 28 30.00 1016 10 16 0.00 0.00
10:53 am 10:53 Mostly Sunny 65 18.3 34 1.1 32 32 NE 20 31 30.04 1017 10 16 0.00 0.00
11:53 am 11:53 Partly Cloudy 70 21.1 35 1.7 28 28 NE 14 22 30.04 1017 10 16 0.00 0.00
12:53 pm 12:53 Sunny 71 21.7 35 1.7 27 27 NNE 10 17 30.04 1017 10 16 0.00 0.00
1:53 pm 13:53 Sunny 73 22.8 35 1.7 25 25 NNW 7 11 30.01 1016 10 16 0.00 0.00
2:53 pm 14:53 Sunny 75 23.9 34 1.1 22 22 N 9 15 30.00 1016 10 16 0.00 0.00
3:53 pm 15:53 Mostly Sunny 75 23.9 34 1.1 22 22 NW 7 11 29.98 1015 10 16 0.00 0.00
4:53 pm 16:53 Sunny 77 25 33 0.6 20 20 WNW 10 17 29.95 1014 10 16 0.00 0.00
5:53 pm 17:53 Sunny 75 23.9 34 1.1 22 22 NW 9 15 29.95 1014 10 16 0.00 0.00
6:53 pm 18:53 Sunny 77 25 33 0.6 20 20 NNW 7 11 29.94 1014 10 16 0.00 0.00
7:53 pm 19:53 Sunny 74 23.3 35 1.7 24 24 NW 7 11 29.93 1014 10 16 0.00 0.00
8:53 pm 20:53 Clear 69 20.6 36 2.2 30 30 SW 3 6 29.93 1014 10 16 0.00 0.00
9:53 pm 21:53 Clear 63 17.2 40 4.4 43 43 Calm 29.96 1014 10 16 0.00 0.00
10:53 pm 22:53 Clear 59 15 43 6.1 56 56 ESE 3 6 29.97 1015 10 16 0.00 0.00
11:53 pm 23:53 Clear 59 15 41 5 51 51 ESE 6 9 29.96 1015 10 16 0.00 0.00

Powered by AerisWeather